Location: Newark
(46.5669°N, 0.8644°E)
Time: 04:33:00
(UTC+00:00)

Envisat - Visible Passes

Search period start: 23 January 2020 00:00
Search period end: 02 February 2020 00:00
Orbit: 764 x 766 km, 98.1° (Epoch: 22 January)

Date Brightness Start Highest point End Pass type
(mag) Time Alt. Az. Time Alt. Az. Time Alt. Az.
23 Jan 5.3 05:48:08 10° NE 05:52:23 26° E 05:56:36 10° SSE visible
23 Jan 5.3 18:45:00 10° SSW 18:49:10 25° W 18:53:22 10° NW visible
24 Jan 6.3 05:13:06 10° ENE 05:15:10 12° E 05:17:14 10° ESE visible
24 Jan 3.1 06:49:47 10° NNE 06:54:54 90° WNW 07:00:00 10° SSW visible
24 Jan 3.9 18:07:12 10° S 18:12:10 53° W 18:17:09 10° NNW visible
25 Jan 4.3 06:13:10 10° NNE 06:18:03 43° E 06:22:52 10° S visible
25 Jan 3.0 17:30:17 10° SSE 17:35:21 75° ENE 17:40:27 10° N visible
25 Jan 6.0 19:12:01 10° WSW 19:14:57 15° W 19:17:52 10° NW visible
26 Jan 5.7 05:37:09 10° NE 05:40:59 21° E 05:44:48 10° SE visible
26 Jan 4.9 18:33:17 10° SSW 18:37:47 31° W 18:42:18 10° NNW visible
27 Jan 3.3 06:38:30 10° NNE 06:43:37 74° ESE 06:48:41 10° S visible
27 Jan 3.5 17:55:48 10° S 18:00:50 66° WSW 18:05:55 10° NNW visible
28 Jan 4.8 06:02:02 10° NNE 06:06:41 35° E 06:11:19 10° SSE visible
28 Jan 3.0 17:19:05 10° SSE 17:24:05 60° ENE 17:29:06 10° N visible
28 Jan 5.8 18:59:57 10° SW 19:03:31 19° W 19:07:06 10° NW visible
29 Jan 6.0 05:26:17 10° NE 05:29:34 17° E 05:32:49 10° SE visible
29 Jan 4.5 18:21:41 10° SSW 18:26:25 39° W 18:31:11 10° NNW visible
30 Jan 3.7 06:27:15 10° NNE 06:32:18 59° E 06:37:18 10° S visible
30 Jan 3.1 17:44:26 10° SSE 17:49:31 82° WSW 17:54:39 10° NNW visible
30 Jan 6.4 19:28:05 10° W 19:29:21 11° W 19:30:38 10° WNW visible
31 Jan 5.2 05:50:56 10° NE 05:55:19 28° E 05:59:40 10° SSE visible
31 Jan 5.5 18:48:04 10° SW 18:52:06 24° W 18:56:10 10° NW visible
01 Feb 6.2 05:15:38 10° ENE 05:18:07 14° E 05:20:36 10° ESE visible
01 Feb 4.1 18:10:10 10° S 18:15:04 49° W 18:20:01 10° NNW visible
